Weather History for Frankfort, KY

Change the Weather History Date:

Saturday, January 19, 2013

  Actual Average Record
Temperature  
Mean Temperature 45 °F 32 °F  
Max Temperature 54 °F 42 °F 73 °F (1929)
Min Temperature 35 °F 23 °F -27 °F (1994)
Degree Days  
Heating Degree Days 20 33  
Month to date heating degree days 517 627  
Since 1 July heating degree days 2317 2459  
Cooling Degree Days 0 0  
Month to date cooling degree days 0 0  
Year to date cooling degree days 0 0  
Moisture  
Dew Point 26 °F    
Average Humidity 48    
Maximum Humidity 64    
Minimum Humidity 32    
Precipitation  
Precipitation 0.00 in 0.10 in 1.23 in (1998)
Month to date precipitation 3.52 2.15  
Year to date precipitation 3.52 2.15  
Sea Level Pressure  
Sea Level Pressure 30.16 in    
Wind  
Wind Speed 15 mph (SSW)    
Max Wind Speed 26 mph    
Max Gust Speed 33 mph    
Visibility 10 miles    
Events      
T = Trace of Precipitation, MM = Missing Value Source: NWS Daily Summary

Daily Weather History Graph

Daily Weather History Graph

Search for Another Location

Airport:

Trip Planner

Search our weather history database for the weather conditions in past years. The results will help you decide how hot, cold, wet, or windy it might be!

Date:

Astronomy

Jan. 19, 2013 Rise Set
Actual Time 7:53 AM EST 5:48 PM EST
Civil Twilight 7:24 AM EST 6:16 PM EST
Nautical Twilight 6:52 AM EST 6:49 PM EST
Astronomical Twilight 6:20 AM EST 7:20 PM EST
Moon 12:12 PM EST (1/19) 1:27 AM EST (1/19)
Length of Visible Light 10h 52m
Length of Day
9h 55m
First Quarter, 57% of the Moon is Illuminated
Jan 19
First Quarter
Jan 26
Full
Feb 3
Last Quarter
Feb 10
New
Feb 17
First Quarter

Hourly Weather History & Observations

Time (EST) Temp. Windchill Dew Point Humidity Pressure Visibility Wind Dir Wind Speed Gust Speed Precip Events Conditions
12:53 AM 35.1 °F 28.6 °F 24.1 °F 64% 30.30 in 10.0 mi SSW 8.1 mph - N/A   Clear
1:53 AM 36.0 °F 29.6 °F 24.1 °F 62% 30.30 in 10.0 mi SSW 8.1 mph - N/A   Clear
2:53 AM 37.0 °F 29.8 °F 24.1 °F 59% 30.29 in 10.0 mi SSW 10.4 mph - N/A   Clear
3:53 AM 36.0 °F 29.0 °F 24.1 °F 62% 30.29 in 10.0 mi SSW 9.2 mph - N/A   Clear
4:53 AM 37.0 °F 28.9 °F 23.0 °F 57% 30.27 in 10.0 mi SSW 12.7 mph - N/A   Clear
5:53 AM 37.0 °F 29.8 °F 24.1 °F 59% 30.27 in 10.0 mi SSW 10.4 mph - N/A   Clear
6:53 AM 37.0 °F 30.4 °F 25.0 °F 62% 30.26 in 10.0 mi SSW 9.2 mph - N/A   Clear
7:53 AM 37.0 °F 31.0 °F 25.0 °F 62% 30.27 in 10.0 mi SSW 8.1 mph - N/A   Clear
8:53 AM 39.0 °F 31.8 °F 26.1 °F 60% 30.27 in 10.0 mi SSW 11.5 mph - N/A   Clear
9:53 AM 42.1 °F 34.9 °F 27.0 °F 55% 30.26 in 10.0 mi SSW 13.8 mph 23.0 mph N/A   Unknown
10:53 AM 46.0 °F 38.0 °F 26.1 °F 46% 30.25 in 10.0 mi SSW 21.9 mph 29.9 mph N/A   Clear
11:53 AM 48.9 °F - 26.1 °F 41% 30.21 in 10.0 mi SW 20.7 mph 26.5 mph N/A   Clear
12:53 PM 51.1 °F - 26.1 °F 38% 30.16 in 10.0 mi SSW 21.9 mph 28.8 mph N/A   Clear
1:53 PM 53.1 °F - 25.0 °F 34% 30.12 in 10.0 mi SW 19.6 mph 28.8 mph N/A   Clear
2:53 PM 53.1 °F - 25.0 °F 34% 30.08 in 10.0 mi SSW 21.9 mph 33.4 mph N/A   Clear
3:53 PM 53.1 °F - 26.1 °F 35% 30.06 in 10.0 mi SSW 21.9 mph 28.8 mph N/A   Clear
4:53 PM 53.1 °F - 25.0 °F 34% 30.04 in 10.0 mi SSW 17.3 mph 21.9 mph N/A   Clear
5:53 PM 50.0 °F - 27.0 °F 41% 30.03 in 10.0 mi SSW 12.7 mph 23.0 mph N/A   Clear
6:53 PM 48.0 °F - 28.0 °F 46% 30.02 in 10.0 mi SSW 15.0 mph 21.9 mph N/A   Clear
7:53 PM 48.0 °F - 28.0 °F 46% 30.02 in 10.0 mi SSW 13.8 mph 26.5 mph N/A   Clear
8:53 PM 48.0 °F - 28.9 °F 48% 30.03 in 10.0 mi SSW 18.4 mph 25.3 mph N/A   Clear
9:53 PM 46.0 °F 39.6 °F 30.0 °F 54% 30.03 in 10.0 mi SSW 15.0 mph - N/A   Clear
10:53 PM 46.0 °F 39.3 °F 28.9 °F 51% 30.03 in 10.0 mi SW 16.1 mph 26.5 mph N/A   Clear
11:53 PM 46.0 °F 39.3 °F 28.9 °F 51% 30.02 in 10.0 mi SW 16.1 mph 27.6 mph N/A   Clear